GSAT0216 (GALILEO 20) (43056 NORAD) Tracking and Keplerian Element Data

This shows tracking and keplerian element data for the satellite.

Feedback or suggestion? Click here.




ElementValue
Catalog43056
NameGSAT0216 (GALILEO 20)
Epoch Orbit574
Epoch Day318.10990782
Epoch Year2018
RAAN297.7127
Inclination56.7361
Eccentricity0.0005711
Argument of Perigee259.4262
Mean Anonmoly100.4995
Mean Motion1.70473783
Decay Rate-2.7E-07
L11 43056U 17079B 18318.10990782 -.00000027 00000-0 00000-0 0 9999
L22 43056 56.7361 297.7127 0005711 259.4262 100.4995 1.70473783 5741

Live tracking and technical data element details for GSAT0216 (GALILEO 20) (NORAD 43056). GSAT0216 (GALILEO 20) can be tracked NOW for your location showing map with azimuth and elevation plus other details from your city location.

Track the satellite on the map from your city or location and see movement details for azimuth, elevation, latitude, longitude, range, height, and movement on the map or in text.







IsCatalogInMostPopularTable: catalog: 43056, numindb: 165
Update: records affected: 1



GetName: 43056 GSAT0216 (GALILEO 20)

Hit Count: updated at: Fri, 16 Nov 2018 10:24:06 GMT